Regional Weather Roundup
Issued by NWS Newport/Morehead, NC

Home | Current Version | Previous Version | Text Only | Print | Product List | Glossary On
Versions: 1 2 3 4 5 6 7 8 9 10 11 12 13 14 15 16 17 18 19 20 21 22 23 24 25 26 27 28 29 30 31 32 33 34 35 36 37 38 39 40 41 42 43 44 45 46 47 48 49 50
000
ASUS42 KMHX 221225
RWRMHX
WEATHER ROUNDUP FOR EASTERN NORTH CAROLINA
NATIONAL WEATHER SERVICE NEWPORT/MOREHEAD CITY NC
800 AM EDT FRI SEP 22 2017

NOTE: "FAIR" INDICATES FEW OR NO CLOUDS BELOW 12,000 FEET
WITH NO SIGNIFICANT WEATHER AND/OR OBSTRUCTIONS TO VISIBILITY

NCZ015>017-031-032-045>047-102-103-221300-
NORTH COAST

CITY           SKY/WX    TMP DP  RH WIND       PRES   REMARKS
EDENTON        SUNNY     70  68  93 CALM      30.06S
ELIZABETH CITY SUNNY     68  68 100 W5        30.06R
KITTY HAWK     SUNNY     70  67  92 CALM      30.04S
MANTEO         SUNNY     71  67  87 W3        30.05S

$$

NCZ045>047-081-094-103-104-221300-
CENTRAL COAST

CITY           SKY/WX    TMP DP  RH WIND       PRES   REMARKS
FRISCO         SUNNY     72  71  97 N3        30.05R

$$

NCZ095-097-098-100-101-221300-
SOUTHERN COAST

CITY           SKY/WX    TMP DP  RH WIND       PRES   REMARKS
BEAUFORT       SUNNY     71  71 100 CALM      30.05S
CEDAR ISLAND   NOT AVBL
JACKSONVILLE   SUNNY     68  68 100 CALM      30.06R
PINEY ISLAND     N/A    N/A N/A N/A CALM      30.05R
WILMINGTON     SUNNY     69  67  93 CALM      30.06R


$$

NCZ011>013-027>030-043-044-078>080-089-090>093-098-221300-
COASTAL PLAIN

CITY           SKY/WX    TMP DP  RH WIND       PRES   REMARKS
AHOSKIE        SUNNY     64  64 100 CALM      30.07S
CLINTON        SUNNY     67  67 100 CALM      30.08S
ELIZABETHTOWN  NOT AVBL
GOLDSBORO      SUNNY     68  68 100 CALM      30.06R
GREENVILLE     MOSUNNY   68  68 100 CALM      30.08S FOG
HAVELOCK       MOSUNNY   68  68 100 CALM      30.07R FOG
KENANSVILLE    SUNNY     64  64 100 CALM      30.08R FOG
KINSTON        SUNNY     64  64 100 CALM      30.08R
NEW BERN       MOSUNNY   68  68 100 CALM      30.08R
RICHLANDS      SUNNY     66  65  96 CALM      30.07R FOG
ROCKY MOUNT    FOG       67  67 100 CALM      30.08R VSB<1/4
WASHINGTON     SUNNY     68  67  96 CALM      30.07S
WHITEVILLE     SUNNY     66  65  97 CALM      30.06S FOG

$$

AMZ130-135-150-152-154-156-158-170-250-252-270-ANZ085-086-088-633-658-670-221300-
MARINE OBSERVATIONS

STATION/POSITION TIME  TEMP    WIND        PRES    WAVE   SWELL
                       AIR SEA DIR/SP/G            HT/PER HT/PER
                 (UTC) (F)     (DEG/KT/KT) (MB)    (FT/S) (FT/S)
CHESAPEAKE LIGHT NOT AVBL
64 E VA BEACH    1150   70 69  280/  8/ 10 1017.4   10/12  10/12
DUCK             1200   72 75  310/  6/  8 1017.4
2 E DUCK         1200      75                N/A     5/11   3/11
OREGON INLET     1200   74 77  280/  2/  4 1017.5
13E OREGON INLT  1148      74                N/A     6/12   7/12
HATTERAS CG      1200   75 78  330/  4/  4 1017.4
DIAMOND BUOY     1150   75 76  330/  4/  6 1017.2    5/11   5/11
CAPE LOOKOUT     1200   77      80/  5/  6 1017.3
BEAUFORT LAB     1200   75 76  350/  2/  2 1017.0
30 SE NEW RVR IN 1208   80      90/  6/ 10 1017.2
30 SE NEW RVR IN NOT AVBL
27 SE WRIGHTSVLE 1208   80 80   80/  6/  8 1017.2
5 SE WRIGHTSVLE  1208   74 78   30/ 12/ 16 1017.0
225 S CAPE HAT   1150   78 80   50/  2/  4 1016.5    6/10   5/10
41 SE CHARLESTON 1210   79 82   30/ 10/ 12 1016.5

$$




USA.gov is the U.S. government's official web portal to all federal, state and local government web resources and services.